Regional Weather Roundup
Issued by NWS

Home | Current Version | Previous Version | Graphics & Text | Print | Product List | Glossary On
Versions: 1 2 3 4 5 6 7 8 9 10 11 12 13 14 15 16 17 18 19 20 21 22 23 24 25 26 27 28 29 30 31 32 33 34 35 36 37 38 39 40 41 42 43 44 45 46 47 48 49 50
335
ASUS43 KLSX 230807
RWRMO

WEATHER SUMMARY FOR MISSOURI
NATIONAL WEATHER SERVICE SPRINGFIELD MO
300 AM CDT SUN APR 23 2017

NOTE: "FAIR" INDICATES FEW OR NO CLOUDS BELOW 12,000 FEET WITH NO
       SIGNIFICANT WEATHER AND/OR OBSTRUCTIONS TO VISIBILITY.
       CURRENT SKY AND/OR WEATHER CONDITIONS ARE NOT AVAILABLE FOR
       CHILLICOTHE AND FARMINGTON.

MOZ001>031-035>038-043-044-053-054-230900-
...NORTHERN AND WESTERN MISSOURI...

CITY           SKY/WX    TMP DP  RH WIND       PRES   REMARKS
KANSAS CTY INT CLEAR     47  30  51 N6        30.17F
KANSAS C DTWN  CLEAR     46  35  65 NW3       30.17S
LEE`S SUMMIT   CLEAR     47  32  56 N5        30.16F
ST JOSEPH      CLEAR     35  33  92 CALM      30.19S
CHILLICOTHE      N/A     40  35  83 CALM      30.17F
KIRKSVILLE     CLEAR     36  33  89 CALM      30.15F

$$
MOZ066>068-077>081-088>096-101>105-230900-
...SOUTHWEST MISSOURI...

CITY           SKY/WX    TMP DP  RH WIND       PRES   REMARKS
SPRINGFIELD    CLEAR     43  39  86 N8        30.08S
JOPLIN         CLEAR     42  40  92 N6        30.12F
BRANSON        CLOUDY    46  45  93 CALM      30.07S

$$
MOZ032>034-039>042-045>050-055>058-069>072-230900-
...CENTRAL MISSOURI...

CITY           SKY/WX    TMP DP  RH WIND       PRES   REMARKS
COLUMBIA       CLEAR     43  34  70 N8        30.11F
JEFFERSON CITY CLEAR     51  33  50 N6        30.11F
ROLLA          CLEAR     42  35  76 N5        30.07S
WHITEMAN AFB   CLEAR     43  37  79 N3        30.12F
OSAGE BEACH    CLEAR     45  36  70 N6        30.11S

$$
MOZ051-052-059>065-230900-
...EAST CENTRAL MISSOURI...

CITY           SKY/WX    TMP DP  RH WIND       PRES   REMARKS
ST LOUIS INTL  CLEAR     49  33  54 N9        30.08F
SPIRIT OF STL  CLEAR     44  37  76 CALM      30.09S
ST CHARLES     CLEAR     48  33  56 NE15      30.09S

$$
MOZ072>076-082>087-097>100-106>115-230900-
...SOUTH CENTRAL AND SOUTHEAST MISSOURI...

CITY           SKY/WX    TMP DP  RH WIND       PRES   REMARKS
CAPE GIRARDEAU CLOUDY    49  44  83 N6        29.97F
FARMINGTON     PTCLDY    44  37  76 N7        30.03F
POPLAR BLUFF   LGT RAIN  50  46  86 N12       29.97F
WEST PLAINS    PTCLDY    48  39  71 N8        30.03F

$$



USA.gov is the U.S. government's official web portal to all federal, state and local government web resources and services.